Terug naar catalogus

STARLINK-1460

ActiefCommunicatieVLEO
NORAD 45676·PAYLOAD·🇺🇸 United States

Gelanceerd Jun 4, 2020 vanaf Cape Canaveral Space Force Station

Loading…

Volgende Passages (komende 24 uur)

TLE

VersSource: CelesTrak SupGP

Epoch: Sep 14, 2026, 20:54 UTC

1 45676C 20035V   26257.87131944  .00065575  00000+0  14233-2 0  2576
2 45676  53.1515 258.6210 0002786  46.9890 123.8734 15.43758962    12

Volg STARLINK-1460 in realtime met AllMySat

Download on the App Store